sat.trackr.live / text

‹ back to catalog

STARLINK-1526

NORAD 46029 · 2020-055C

PAYLOAD ACTIVE UNKNOWN

§ Identity

Operator
Country
US
Launch date
2020-08-07
Launch site
AFETR
Launch vehicle
Mass (kg)
RCS (m²)

Purposes: comms

External: N2YO · Heavens-Above · Gunter

§ Orbital elements

Epoch: 2026-09-19T16:01:58.349280Z

Period
94.01 min
Inclination
53.1604°
Eccentricity
0.0000887
Mean motion
15.31694224 rev/d
Perigee alt
470.1 km
Apogee alt
471.4 km
Semi-major
6,848.9 km
B*
6.0816e-5
RAAN
304.6776°
Arg perigee
69.6954°
Mean anomaly
290.4143°
Rev number
33,860

§ Raw data

STARLINK-15261 46029U 20055C   26262.66803645  .00001522  00000+0  60816-4 0  99932 46029  53.1604 304.6776 0000887  69.6954 290.4143 15.31694224338607

JSON: /api/v1/satellites/46029 · /tle

For live sub-satellite position, see the globe view (requires WebGL).

§ Visibility from observer

Set your observer location to see the next 7 days of passes ≥ 10°. The values pass through the URL so the page stays shareable.

No JS? Fill the form by hand. The geolocation button needs JavaScript.